Location: McFarlands Corners
(41.4117°N, 81.3382°W)
Time: 16:38:03
(UTC+00:00)

SR - Pass Details

Date: 18 February 2026
Orbit: 572 x 849 km, 66.7° (Epoch: 12 March)

Event Time Altitude Azimuth Distance (km) Brightness Sun altitude
Rises 18:03:29 0° 335° (NNW) 3,078 ? 36.9°
Reaches altitude 10° 18:05:50 10° 341° (NNW) 2,202 ? 36.8°
Maximum altitude 18:10:42 47° 55° (NE) 995 ? 36.7°
Drops below altitude 10° 18:15:56 10° 129° (SE) 2,360 ? 36.5°
Sets 18:18:31 0° 135° (SE) 3,321 ? 36.4°
